Regional Weather Roundup
Issued by NWS Cleveland, OH

Home | Current Version | Previous Version | Text Only | Print | Product List | Glossary Off
Versions: 1 2 3 4 5 6 7 8 9 10 11 12 13 14 15 16 17 18 19 20 21 22 23 24 25 26 27 28 29 30 31 32 33 34 35 36 37 38 39 40 41 42 43 44 45 46 47 48 49 50

000
ASUS41 KCLE 151702
RWRCLE
OHIO REGIONAL WEATHER ROUNDUP
NATIONAL WEATHER SERVICE CLEVELAND, OH
100 PM EDT TUE APR 15 2014

NOTE: "FAIR" INDICATES FEW OR NO CLOUDS BELOW 12,000 FEET WITH NO
SIGNIFICANT WEATHER AND/OR OBSTRUCTIONS TO VISIBILITY.

OHZ001>008-015>018-024>027-034-035-043-044-151800-
   NORTHWEST OHIO

CITY           SKY/WX    TMP DP  RH WIND       PRES   REMARKS
DEFIANCE       CLOUDY    32  17  54 NW18G24   30.05R WCI  20
FINDLAY        CLOUDY    30  18  60 NW18G24   30.02R WCI  18
TOLEDO EXPRESS CLOUDY    29  18  63 NW17G23   30.02R WCI  17
TOLEDO EXEC    CLOUDY    31  17  56 NW16      30.03R WCI  20
LIMA           FLURRIES  31  20  63 NW20G29   30.03R WCI  19
$$

OHZ009>014-019>023-028>033-038-089-151800-
   NORTHEAST OHIO

CITY           SKY/WX    TMP DP  RH WIND       PRES   REMARKS
CLE-HOPKINS    FLURRIES  31  23  72 NW14      29.98R WCI  21
CLE-LAKEFRONT  CLOUDY    30  24  78 W18       29.94R WCI  18
CUY CO. ARPT   NOT AVBL
LORAIN-ELYRIA  FLURRIES  31  23  72 NW16      29.98F WCI  20
ASHTABULA      FLURRIES  29  23  78 NW14G21   29.89F WCI  18
AKRON-CANTON   FLURRIES  32  27  81 NW21      29.94R WCI  20
WOOSTER        CLOUDY    28  24  85 NW14      29.96R WCI  17
MANSFIELD      CLOUDY    27  22  81 NW13G18   29.96R WCI  16
YOUNGSTOWN     LGT SNOW  30  25  81 NW16G24   29.86R FOG     WCI  19
$$

OHZ042-051>053-060>062-070>072-077>081-151800-
  SOUTHWEST OHIO

CITY           SKY/WX    TMP DP  RH WIND       PRES   REMARKS
CINC-COVINGTON CLOUDY    37  22  54 N17G24    30.06R
CINC-LUNKEN    CLOUDY    36  24  62 NW8       30.10R
HAMILTON       CLOUDY    37  22  54 NW16      30.09R
DAYTON         CLOUDY    33  21  61 NW17      30.06R WCI  22
WRIGHT-PAT AFB PTSUNNY   33  22  63 NW16G22   30.06R WCI  22
DAYTON GENERAL CLOUDY    32  19  58 N16G23    30.05R WCI  21
WILMINGTON     PTSUNNY   34  19  54 NW21G28   30.03R WCI  22
$$

OHZ036-037-039>041-045>050-054>059-063>069-073>076-082>088-151800-
  CENTRAL AND SOUTHEAST OHIO

CITY           SKY/WX    TMP DP  RH WIND       PRES   REMARKS
COLUMBUS       CLOUDY    34  26  72 NW16G22   30.01R WCI  24
OSU AIRPORT    CLOUDY    31  21  66 NW15      30.01R WCI  20
BOLTON FIELD   PTSUNNY   34  23  64 NW14      30.03R WCI  24
RICKENBACK AFB NOT AVBL
NEWARK         CLOUDY    32  24  72 NW13      29.99R WCI  22
MARION         CLOUDY    28  19  69 NW17      30.00R WCI  16
LANCASTER      CLOUDY    33  25  72 NW12G22   30.03R WCI  24
ZANESVILLE     CLOUDY    32  26  78 NW13      29.96R WCI  22
NEW PHILLY     CLOUDY    31  26  82 NW14      29.95R WCI  21
$$



USA.gov is the U.S. government's official web portal to all federal, state and local government web resources and services.